GW2897 Weather Reports


Display with metric or nautical units.
time (UTC)temp
F
wind
direction
speed
MPH
gust
MPH
rain 1hr
in
rain 24hr
in
rain mn
in
humidity
%
barometer
mb
20260906190923 96 132 2.0 6.0 0.00 0.17 0.01 55 1009.8
20260906190002 95 146 1.0 5.0 0.00 0.17 0.01 55 1010.0
20260906185402 95 127 2.0 5.0 0.00 0.17 0.01 55 1010.1
20260906184502 96 118 2.0 5.0 0.00 0.17 0.01 56 1010.3
20260906183602 96 159 2.0 5.0 0.00 0.17 0.01 54 1010.4
20260906182702 95 165 2.0 6.0 0.00 0.17 0.01 59 1010.6
20260906181823 95 125 2.0 6.0 0.00 0.17 0.01 57 1010.7
20260906180902 94 63 1.0 6.0 0.00 0.17 0.01 59 1010.8
20260906180002 94 99 3.0 8.0 0.00 0.17 0.01 57 1010.9
20260906175402 96 106 1.0 5.0 0.00 0.17 0.01 57 1010.9
20260906174502 95 141 1.0 4.0 0.00 0.17 0.01 59 1011.0
20260906173602 94 189 2.0 5.0 0.00 0.17 0.01 59 1011.1
20260906172702 95 252 1.0 6.0 0.00 0.17 0.01 59 1011.2
20260906171802 94 121 2.0 6.0 0.00 0.17 0.01 58 1011.3
20260906170902 94 160 2.0 6.0 0.00 0.17 0.01 57 1011.4
20260906170002 94 143 2.0 6.0 0.00 0.17 0.01 59 1011.6
20260906165402 95 141 2.0 6.0 0.00 0.17 0.01 57 1011.6
20260906164502 94 180 2.0 4.0 0.00 0.17 0.01 57 1011.7
20260906163623 94 64 1.0 7.0 0.00 0.17 0.01 58 1011.8
20260906162723 93 123 1.0 6.0 0.00 0.17 0.01 58 1011.9
20260906161823 94 117 1.0 4.0 0.00 0.17 0.01 60 1011.9
20260906160903 92 52 1.0 4.0 0.00 0.17 0.01 61 1012.0
20260906160002 92 98 1.0 8.0 0.00 0.17 0.01 61 1012.1
20260906155402 92 81 1.0 5.0 0.00 0.17 0.01 62 1012.1
20260906154502 91 58 1.0 5.0 0.00 0.17 0.01 66 1012.1
20260906153602 91 79 1.0 4.0 0.00 0.17 0.01 67 1012.1
20260906152703 90 119 1.0 4.0 0.00 0.17 0.01 68 1012.2
20260906151802 89 120 2.0 7.0 0.00 0.17 0.01 69 1012.2
20260906150903 88 104 1.0 4.0 0.00 0.17 0.01 74 1012.3
20260906150002 87 324 1.0 5.0 0.00 0.17 0.01 77 1012.2
20260906145403 86 331 2.0 5.0 0.00 0.17 0.01 79 1012.2
20260906144502 85 117 1.0 4.0 0.00 0.17 0.01 81 1012.2
20260906143603 84 92 1.0 4.0 0.00 0.17 0.01 84 1012.4
20260906142703 82 81 0.0 2.0 0.00 0.17 0.01 86 1012.4
20260906141803 81 67 0.0 2.0 0.00 0.17 0.01 89 1012.4
20260906140903 79 327 0.0 2.0 0.00 0.17 0.01 91 1012.3
20260906140003 78 80 0.0 1.0 0.00 0.17 0.01 94 1012.2
20260906135403 78 86 0.0 1.0 0.00 0.17 0.01 96 1012.3
20260906134503 77 88 0.0 1.0 0.00 0.17 0.01 97 1012.3
20260906133603 76 102 0.0 1.0 0.00 0.17 0.01 98 1012.3
20260906132703 76 70 0.0 3.0 0.00 0.17 0.01 99 1012.3
20260906131803 75 333 0.0 1.0 0.00 0.17 0.01 98 1012.2
20260906130903 74 121 0.0 1.0 0.00 0.17 0.01 99 1012.2
20260906130003 74 126 0.0 1.0 0.00 0.17 0.01 99 1012.1
20260906125403 74 128 0.0 1.0 0.00 0.17 0.01 99 1012.1
20260906124503 74 133 0.0 1.0 0.00 0.17 0.01 99 1012.0
20260906123603 73 0 0.0 0.0 0.00 0.17 0.01 99 1012.0
20260906122703 73 101 0.0 1.0 0.00 0.17 0.01 99 1012.0
20260906121803 72 106 0.0 1.0 0.00 0.17 0.01 99 1011.9
20260906120924 72 0 0.0 0.0 0.00 0.17 0.01 99 1011.9
20260906120004 72 108 0.0 1.0 0.00 0.17 0.01 99 1011.6
20260906115403 72 104 0.0 1.0 0.00 0.17 0.01 99 1011.6
20260906114503 71 104 0.0 1.0 0.00 0.17 0.01 98 1011.4
20260906113604 71 0 0.0 0.0 0.00 0.17 0.01 98 1011.4
20260906112703 70 0 0.0 0.0 0.00 0.17 0.01 98 1011.3
20260906111803 70 0 0.0 0.0 0.00 0.17 0.01 98 1011.1
20260906110903 70 0 0.0 0.0 0.00 0.17 0.01 98 1011.2
20260906110003 70 0 0.0 0.0 0.00 0.17 0.01 98 1011.2
20260906105403 70 0 0.0 0.0 0.00 0.17 0.01 98 1011.2
20260906104503 70 0 0.0 0.0 0.00 0.17 0.01 98 1011.1
20260906103603 70 0 0.0 0.0 0.00 0.17 0.01 98 1011.1
20260906102703 70 0 0.0 0.0 0.00 0.17 0.01 98 1010.9
20260906101803 70 0 0.0 0.0 0.01 0.17 0.01 98 1010.9
20260906100903 70 0 0.0 0.0 0.01 0.17 0.01 98 1011.0
20260906100000 70 0 0.0 0.0 0.01 0.17 0.01 98 1011.1
20260906095359 71 101 0.0 1.0 0.01 0.17 0.01 98 1011.0
20260906094500 71 101 0.0 1.0 0.01 0.17 0.01 98 1011.0
20260906093600 70 0 0.0 0.0 0.01 0.17 0.01 98 1011.1
20260906092700 70 0 0.0 0.0 0.01 0.17 0.01 98 1011.2
20260906091800 71 0 0.0 0.0 0.00 0.16 0.00 98 1011.1
20260906090900 71 0 0.0 0.0 0.00 0.16 0.00 98 1011.1
20260906090000 71 0 0.0 0.0 0.00 0.16 0.00 98 1011.1
20260906085400 71 0 0.0 0.0 0.00 0.16 0.00 98 1010.9
20260906084500 71 101 0.0 1.0 0.00 0.16 0.00 98 1010.9
20260906083621 71 101 0.0 1.0 0.00 0.16 0.00 98 1010.9
20260906082700 71 102 0.0 1.0 0.00 0.16 0.00 98 1010.8
20260906081800 71 0 0.0 0.0 0.00 0.16 0.00 98 1010.7
20260906080900 71 0 0.0 0.0 0.00 0.16 0.00 98 1010.7
20260906080000 71 0 0.0 0.0 0.00 0.16 0.00 98 1010.6
20260906075401 71 0 0.0 0.0 0.00 0.16 0.00 98 1010.6
20260906074500 71 0 0.0 0.0 0.00 0.16 0.00 98 1010.6
20260906073600 71 0 0.0 0.0 0.00 0.16 0.00 98 1010.6
20260906072700 72 0 0.0 0.0 0.00 0.16 0.00 98 1010.4
20260906071821 72 0 0.0 0.0 0.00 0.16 0.00 98 1010.3
20260906070921 72 0 0.0 0.0 0.00 0.16 0.00 98 1010.5
20260906070000 72 0 0.0 0.0 0.00 0.16 0.00 98 1010.6
20260906065400 72 0 0.0 0.0 0.00 0.16 0.00 98 1010.7
20260906064500 72 0 0.0 0.0 0.00 0.16 0.00 98 1010.9
20260906063600 72 0 0.0 0.0 0.00 0.16 0.00 98 1010.9
20260906062700 72 0 0.0 0.0 0.00 0.16 0.00 98 1011.1
20260906061800 72 0 0.0 0.0 0.00 0.16 0.00 98 1011.2
20260906060900 72 298 0.0 1.0 0.00 0.16 0.00 98 1011.5
20260906060000 72 79 0.0 1.0 0.00 0.16 0.00 98 1011.6
20260906055400 72 105 0.0 1.0 0.00 0.16 0.00 98 1011.7
20260906054500 72 0 0.0 0.0 0.00 0.16 0.00 98 1011.7
20260906053621 72 0 0.0 0.0 0.00 0.16 0.00 98 1011.8
20260906052700 72 0 0.0 0.0 0.00 0.16 0.00 97 1012.0
20260906051800 72 0 0.0 0.0 0.00 0.16 0.00 97 1012.1
20260906050921 72 118 0.0 1.0 0.00 0.16 0.00 97 1012.1
20260906050001 72 121 0.0 1.0 0.00 0.16 0.00 97 1012.1
20260906045401 72 119 0.0 2.0 0.00 0.16 0.00 97 1012.1
20260906044522 72 97 1.0 2.0 0.00 0.16 0.00 97 1012.1
20260906043600 72 106 0.0 1.0 0.00 0.16 0.00 97 1012.2
20260906042701 73 80 0.0 2.0 0.00 0.16 0.00 97 1012.2
20260906041821 73 86 0.0 2.0 0.00 0.16 0.00 98 1012.1
20260906040900 72 119 0.0 1.0 0.00 0.16 0.00 97 1012.1
20260906040001 73 118 0.0 1.0 0.00 0.16 0.00 97 1012.1
20260906035422 73 118 0.0 1.0 0.00 0.16 0.16 97 1012.0
20260906034501 73 118 0.0 1.0 0.00 0.16 0.16 97 1012.1
20260906033601 72 118 0.0 1.0 0.00 0.16 0.16 97 1012.1
20260906032701 72 0 0.0 0.0 0.00 0.16 0.16 97 1012.1
20260906031801 73 0 0.0 0.0 0.00 0.16 0.16 97 1012.1
20260906030901 73 0 0.0 0.0 0.00 0.16 0.16 97 1012.2
20260906030001 73 118 0.0 1.0 0.00 0.16 0.16 97 1012.1
20260906025401 73 119 0.0 2.0 0.00 0.16 0.16 97 1012.1
20260906024501 73 0 0.0 0.0 0.00 0.16 0.16 97 1012.2
20260906023622 73 0 0.0 0.0 0.00 0.16 0.16 97 1012.1
20260906022701 73 242 0.0 1.0 0.00 0.16 0.16 97 1012.3
20260906021801 73 242 0.0 1.0 0.00 0.16 0.16 97 1012.1
20260906020901 73 242 0.0 1.0 0.00 0.16 0.16 97 1012.3
20260906020001 73 242 0.0 1.0 0.00 0.16 0.16 97 1012.0
20260906015401 73 242 0.0 1.0 0.00 0.16 0.16 97 1012.0
20260906014501 74 242 0.0 1.0 0.00 0.16 0.16 96 1011.9
20260906013601 74 0 0.0 0.0 0.00 0.16 0.16 96 1011.7
20260906012701 74 259 0.0 1.0 0.00 0.16 0.16 96 1011.7
20260906011801 74 136 0.0 1.0 0.00 0.16 0.16 96 1011.6
20260906010901 74 123 0.0 2.0 0.00 0.16 0.16 96 1011.5
20260906010001 74 3 2.0 5.0 0.00 0.16 0.16 96 1011.3
20260906005401 75 319 1.0 4.0 0.00 0.16 0.16 96 1011.1
20260906004501 75 339 0.0 1.0 0.00 0.16 0.16 96 1011.3
20260906003601 75 22 0.0 1.0 0.00 0.16 0.16 95 1011.2
20260906002701 75 116 0.0 1.0 0.00 0.16 0.16 95 1011.2
20260906001801 75 118 0.0 1.0 0.00 0.16 0.16 95 1011.3
20260906000901 76 0 0.0 0.0 0.00 0.16 0.16 95 1011.3
20260906000001 76 0 0.0 0.0 0.00 0.16 0.16 95 1011.1
20260905235422 76 0 0.0 0.0 0.00 0.16 0.16 95 1011.1
20260905234501 77 0 0.0 0.0 0.00 0.16 0.16 95 1011.2
20260905233601 77 115 0.0 3.0 0.00 0.16 0.16 95 1011.2
20260905232701 77 162 0.0 2.0 0.00 0.16 0.16 95 1011.1
20260905231801 78 119 0.0 1.0 0.00 0.16 0.16 95 1010.9
20260905230902 78 123 1.0 3.0 0.00 0.16 0.16 95 1011.1
20260905230001 78 283 0.0 2.0 0.00 0.16 0.16 95 1011.3
20260905225401 78 149 0.0 3.0 0.00 0.16 0.16 94 1011.2
20260905224501 78 127 1.0 3.0 0.00 0.16 0.16 95 1011.3
20260905223623 78 123 1.0 5.0 0.00 0.16 0.16 95 1011.4
20260905222703 78 91 0.0 2.0 0.00 0.16 0.16 96 1011.2
20260905221801 78 349 0.0 1.0 0.00 0.16 0.16 96 1011.2
20260905220902 78 350 0.0 1.0 0.00 0.16 0.16 95 1011.1
20260905220023 77 356 0.0 3.0 0.01 0.16 0.16 96 1010.8
20260905215402 77 344 1.0 3.0 0.02 0.16 0.16 95 1010.7
20260905214502 77 74 0.0 2.0 0.11 0.16 0.16 95 1011.2
20260905213601 76 103 0.0 2.0 0.15 0.16 0.16 95 1011.1
20260905212701 76 145 0.0 1.0 0.16 0.16 0.16 94 1011.1
20260905211802 76 199 0.0 1.0 0.16 0.16 0.16 93 1010.9
20260905210902 76 233 1.0 7.0 0.16 0.16 0.16 92 1011.0
20260905210002 76 280 4.0 10.0 0.15 0.15 0.15 90 1011.4
20260905205402 77 284 7.0 14.0 0.14 0.14 0.14 90 1011.6
20260905204501 80 277 12.0 22.0 0.05 0.05 0.05 88 1011.8
20260905203603 88 280 5.0 22.0 0.01 0.01 0.01 75 1011.2
20260905202702 96 309 1.0 5.0 0.00 0.00 0.00 56 1009.9
20260905201802 97 340 0.0 3.0 0.00 0.00 0.00 58 1009.8
20260905200902 99 285 0.0 1.0 0.00 0.00 0.00 54 1009.8
20260905200002 100 115 1.0 2.0 0.00 0.00 0.00 53 1009.9
20260905195402 100 121 1.0 2.0 0.00 0.00 0.00 55 1010.0
20260905194502 98 62 1.0 4.0 0.00 0.00 0.00 54 1010.2
20260905193605 97 292 3.0 11.0 0.00 0.00 0.00 57 1010.1
20260905192702 97 233 4.0 12.0 0.00 0.00 0.00 56 1010.0
20260905191802 99 119 2.0 7.0 0.00 0.00 0.00 53 1010.3